Estació meteorològica de Susqueda - Presa de (La Selva, Susqueda)

Consulta les dades en temps real de l'estació meteorològica de Susqueda - Presa de





Hora UTC 10:10
Temperatura 31.5 ºC
Humitat 42.0 %
Pressió 1018.7 hPa
Pluja 0.0 mm
Velocitat vent 0.0 km/h
Direcció vent E

Webcam

Dades diàries 2026-09-02



Hora UTC (hivern +1h; estiu +2h)
Temperatura (ºC) Humitat (%) Pressió (hPa) Velocitat vent (km/h) Precipitació (mm)
Hora UTC Aire Humitat Pressió Vel. Dir. Vel. Max Dir. Intent. màx 5 min.
00:05 21.4 81.0 1018.0 0.0 W 0.0 0.0
00:10 21.4 81.0 1018.0 0.0 WNW 0.0 0.0
00:15 21.3 81.0 1017.9 0.0 WNW 0.0 0.0
00:20 21.2 81.0 1018.0 0.0 W 0.0 0.0
00:25 21.3 81.0 1018.0 0.0 W 0.0 0.0
00:30 21.2 82.0 1018.0 0.0 W 0.0 0.0
00:35 21.2 82.0 1018.0 0.0 W 0.0 0.0
00:40 21.1 82.0 1018.1 0.0 W 0.0 0.0
00:45 21.0 82.0 1018.1 0.0 W 0.0 0.0
00:50 20.9 82.0 1018.1 0.0 WNW 0.0 0.0
00:55 20.8 83.0 1018.1 0.0 W 0.0 0.0
01:00 20.8 83.0 1018.0 0.0 W 0.0 0.0
01:05 20.7 83.0 1017.9 0.0 WNW 0.0 0.0
01:10 20.7 83.0 1017.9 0.0 W 0.0 0.0
01:15 20.7 82.0 1017.9 0.0 W 1.6 0.0
01:20 20.6 83.0 1018.0 0.0 W 1.6 0.0
01:25 20.5 83.0 1017.9 0.0 W 1.6 0.0
01:30 20.6 83.0 1017.9 0.0 SW 6.4 0.0
01:35 20.6 83.0 1017.9 0.0 W 11.3 0.0
01:40 20.4 83.0 1017.9 0.0 W 11.3 0.0
01:45 20.3 83.0 1017.9 0.0 WSW 3.2 0.0
01:50 20.3 83.0 1018.0 0.0 W 3.2 0.0
01:55 20.2 82.0 1018.1 0.0 W 1.6 0.0
02:00 20.3 83.0 1018.0 0.0 WNW 11.3 0.0
02:05 20.4 82.0 1018.0 0.0 W 11.3 0.0
02:10 20.4 83.0 1018.0 0.0 WNW 1.6 0.0
02:15 20.4 83.0 1018.0 1.6 W 11.3 0.0
02:20 20.4 83.0 1018.1 0.0 WNW 11.3 0.0
02:25 20.4 83.0 1018.1 0.0 SSW 1.6 0.0
02:30 20.3 82.0 1018.2 0.0 WNW 1.6 0.0
02:35 20.3 83.0 1018.1 0.0 WSW 6.4 0.0
02:40 20.2 83.0 1018.1 0.0 WNW 6.4 0.0
02:45 20.2 83.0 1018.1 0.0 WNW 1.6 0.0
02:50 20.2 83.0 1018.1 0.0 W 1.6 0.0
02:55 20.1 84.0 1018.1 0.0 W 1.6 0.0
03:00 20.0 84.0 1018.1 0.0 W 9.7 0.0
03:05 20.0 84.0 1018.1 0.0 WNW 9.7 0.0
03:10 20.0 84.0 1018.1 0.0 WNW 0.0 0.0
03:15 19.9 84.0 1018.1 0.0 WNW 1.6 0.0
03:20 19.8 84.0 1018.2 0.0 W 8.0 0.0
03:25 19.7 83.0 1018.2 0.0 WNW 1.6 0.0
03:30 19.3 82.0 1018.2 0.0 WNW 1.6 0.0
03:35 19.8 84.0 1018.3 0.0 W 9.7 0.0
03:40 19.7 84.0 1018.3 0.0 W 9.7 0.0
03:45 19.7 84.0 1018.3 0.0 W 6.4 0.0
03:50 19.6 83.0 1018.3 0.0 W 1.6 0.0
03:55 19.4 82.0 1018.3 0.0 W 0.0 0.0
04:00 19.4 84.0 1018.2 0.0 WSW 0.0 0.0
04:05 19.6 85.0 1018.2 0.0 WSW 0.0 0.0
04:10 19.5 84.0 1018.3 0.0 W 0.0 0.0
04:15 19.4 84.0 1018.2 0.0 W 0.0 0.0
04:20 19.3 84.0 1018.1 0.0 W 1.6 0.0
04:25 19.3 84.0 1018.2 0.0 WNW 9.7 0.0
04:30 19.2 84.0 1018.2 0.0 W 9.7 0.0
04:35 19.2 83.0 1018.2 0.0 WNW 0.0 0.0
04:40 19.3 84.0 1018.2 0.0 WNW 1.6 0.0
04:45 19.2 84.0 1018.2 0.0 W 0.0 0.0
04:50 19.2 83.0 1018.2 0.0 W 0.0 0.0
04:55 19.2 84.0 1018.2 0.0 W 1.6 0.0
05:00 19.2 85.0 1018.2 0.0 W 1.6 0.0
05:05 19.0 85.0 1018.2 0.0 W 0.0 0.0
05:10 18.9 84.0 1018.2 0.0 W 0.0 0.0
05:15 18.9 85.0 1018.3 0.0 WSW 1.6 0.0
05:20 19.1 85.0 1018.4 0.0 W 9.7 0.0
05:25 18.9 85.0 1018.5 0.0 W 9.7 0.0
05:30 18.9 85.0 1018.5 0.0 WSW 1.6 0.0
05:35 18.8 85.0 1018.5 0.0 NW 4.8 0.0
05:40 18.9 86.0 1018.5 0.0 W 4.8 0.0
05:45 18.8 86.0 1018.5 0.0 W 9.7 0.0
05:50 18.7 85.0 1018.5 0.0 W 1.6 0.0
05:55 18.7 84.0 1018.5 0.0 W 1.6 0.0
06:00 18.8 85.0 1018.5 0.0 W 9.7 0.0
06:05 18.8 86.0 1018.6 0.0 W 9.7 0.0
06:10 18.7 86.0 1018.7 0.0 W 1.6 0.0
06:15 18.6 85.0 1018.8 0.0 WNW 0.0 0.0
06:20 18.7 84.0 1018.7 0.0 W 1.6 0.0
06:25 19.1 85.0 1018.7 0.0 W 8.0 0.0
06:30 19.2 85.0 1018.7 0.0 W 8.0 0.0
06:35 19.2 84.0 1018.8 1.6 W 11.3 0.0
06:40 19.2 85.0 1018.9 0.0 W 11.3 0.0
06:45 19.4 85.0 1019.0 0.0 W 8.0 0.0
06:50 19.4 85.0 1019.0 0.0 W 9.7 0.0
06:55 19.5 85.0 1019.0 0.0 WSW 9.7 0.0
07:00 19.7 84.0 1019.0 0.0 W 3.2 0.0
07:05 19.8 85.0 1018.9 0.0 W 1.6 0.0
07:10 19.8 85.0 1018.9 0.0 W 4.8 0.0
07:15 19.9 85.0 1018.9 0.0 W 1.6 0.0
07:20 20.0 85.0 1018.9 0.0 W 1.6 0.0
07:25 20.1 85.0 1018.9 1.6 SW 6.4 0.0
07:30 20.2 84.0 1019.0 0.0 SW 6.4 0.0
07:35 20.3 84.0 1019.0 0.0 WSW 1.6 0.0
07:40 20.6 83.0 1018.9 0.0 SW 1.6 0.0
07:45 20.7 83.0 1018.8 0.0 SW 1.6 0.0
07:50 20.8 83.0 1018.9 0.0 SW 0.0 0.0
07:55 20.9 82.0 1018.9 0.0 WSW 0.0 0.0
08:00 21.2 81.0 1018.9 0.0 WSW 1.6 0.0
08:05 21.3 81.0 1018.9 0.0 SW 0.0 0.0
08:10 21.6 80.0 1018.9 0.0 WSW 0.0 0.0
08:15 21.8 80.0 1018.9 0.0 WSW 0.0 0.0
08:20 21.8 79.0 1019.0 0.0 WSW 0.0 0.0
08:25 22.1 79.0 1018.9 0.0 WSW 0.0 0.0
08:30 22.2 79.0 1018.9 0.0 WSW 1.6 0.0
08:35 22.3 79.0 1018.9 0.0 WSW 1.6 0.0
08:40 22.5 78.0 1018.9 0.0 WSW 0.0 0.0
08:45 22.8 77.0 1019.0 0.0 WSW 0.0 0.0
08:50 23.1 76.0 1019.0 0.0 WSW 0.0 0.0
08:55 23.2 75.0 1018.9 0.0 WSW 0.0 0.0
09:00 23.6 72.0 1018.8 0.0 WSW 0.0 0.0
09:05 23.8 72.0 1018.9 0.0 WSW 0.0 0.0
09:10 24.2 70.0 1018.9 0.0 WSW 0.0 0.0
09:15 24.6 68.0 1018.9 0.0 WSW 0.0 0.0
09:20 25.1 66.0 1019.0 0.0 WSW 0.0 0.0
09:25 25.7 62.0 1018.9 0.0 ESE 0.0 0.0
09:30 26.5 65.0 1018.9 0.0 ESE 0.0 0.0
09:35 27.7 53.0 1018.9 0.0 ESE 0.0 0.0
09:40 28.8 48.0 1018.8 0.0 E 6.4 0.0
09:45 29.3 48.0 1018.8 0.0 ESE 6.4 0.0
09:50 30.2 46.0 1018.8 0.0 ESE 3.2 0.0
09:55 30.6 42.0 1018.8 0.0 E 3.2 0.0
10:00 30.2 44.0 1018.8 0.0 E 3.2 0.0
10:05 30.9 43.0 1018.7 0.0 ESE 1.6 0.0
10:10 31.5 42.0 1018.7 0.0 E 0.0 0.0
Màxima 31.5 86.0 1019.0 1.6 SW 11.3 0.0
Mínima 18.6 42.0 1017.9
Total 0.0